Regional Weather Roundup
Issued by NWS Portland, ME

Current Version | Previous Version | Text Only | Print | Product List | Glossary Off
Versions: 1 2 3 4 5 6 7 8 9 10 11 12 13 14 15 16 17 18 19 20 21 22 23 24 25 26 27 28 29 30 31 32 33 34 35 36 37 38 39 40 41 42 43 44 45 46 47 48 49 50
000 ASUS41 KGYX 240310 RWRGYX WEATHER ROUNDUP FOR MAINE AND NEW HAMPSHIRE NATIONAL WEATHER SERVICE GRAY ME 1100 PM EDT SAT SEP 23 2017 MEZ002-005-006-010-012-015-018-020-021-024-026-027-029-240400- MAINE CITY SKY/WX TMP DP RH WIND PRES REMARKS PORTLAND CLEAR 64 58 80 CALM 30.02S SANFORD CLEAR 59 58 96 CALM 30.03F BAR HARBOR CLEAR 60 58 92 CALM 30.03R WISCASSET CLEAR 61 58 90 CALM 30.04R ROCKLAND CLEAR 60 58 92 W6 30.03R FRYEBURG CLEAR 62 62 100 CALM 30.06R LEWISTONAUBURN CLEAR 63 61 93 CALM 30.04R AUGUSTA CLEAR 66 57 72 CALM 30.03R WATERVILLE CLEAR 63 59 87 CALM 30.01R BANGOR CLEAR 64 57 78 SE5 30.02S GREENVILLE N/A 68 61 78 N5 30.06R MILLINOCKET MOCLDY 65 64 97 CALM 30.03R HOULTON PTCLDY 59 59 100 CALM 30.00F PRESQUE ISLE CLEAR 58 58 100 CALM 30.03R FOG FRENCHVILLE CLOUDY 64 57 78 CALM 30.02R CARIBOU CLEAR 62 57 83 NW3 30.02R $$ NHZ002-005-008-009-011-012-014-240400- NEW HAMPSHIRE CITY SKY/WX TMP DP RH WIND PRES REMARKS PORTSMOUTH CLEAR 61 59 92 CALM 30.02S ROCHESTER CLEAR 64 59 83 CALM 30.03F NASHUA CLEAR 66 63 90 W3 30.05S MANCHESTER CLEAR 68 63 84 CALM 30.03S CONCORD CLEAR 62 59 90 CALM 30.05S LACONIA CLEAR 65 60 84 CALM 30.06S PLYMOUTH FAIR 61 59 92 CALM 30.07R BERLIN CLEAR 58 56 93 CALM 30.11R WHITEFIELD CLEAR 59 56 89 CALM 30.11R JAFFREY CLEAR 61 60 97 CALM 30.09S LEBANON CLEAR 62 59 90 CALM 30.07S MT WASHINGTON CLEAR 59 52 77 N8 N/A $$ VTZ005-007-008-240400- VERMONT CITY SKY/WX TMP DP RH WIND PRES REMARKS ST JOHNSBURY N/A 64 63 96 MISG 30.08R MONTPELIER CLEAR 61 61 100 S5 30.14R BURLINGTON CLEAR 68 64 87 CALM 30.07R $$ MAZ007-012-024-CTZ003-RIZ002-NYZ038-NYZ072-240400- SOUTHERN NEW ENGLAND AND NY CITY SKY/WX TMP DP RH WIND PRES REMARKS BOSTON PTCLDY 60 60 100 CALM 30.05R FOG WORCESTER CLEAR 68 54 60 NW3 30.08R NANTUCKET FOG 62 62 100 N12 30.00F VSB 1/4 PROVIDENCE CLEAR 66 64 93 CALM 30.04F HARTFORD PTCLDY 65 59 81 CALM 30.05R ALBANY PTCLDY 66 60 81 CALM 30.08R NEW YORK CITY CLEAR 76 59 55 N3 30.03S $$ ANZ081-ANZ082-ANZ150-NHZ014-MEZ023>029-240400- COASTAL MARINE OBSERVATIONS STATION/POSITION TIME TEMP WIND PRES WAVE AIR SEA DIR/SP/G HT/PER (UTC) (F) (DEG/KT/KT) (MB) (FT/S) MOUNT DESERT ROC 0300 57 220/ 8/ 8 1016.9R MATINICUS ROCK 0200 57 240/ 8/ 8 1016.3R ISLE OF SHOALS 0200 63 230/ 7/ 7 1016.7R JEFFREYS LEDGE 0236 62 N/A 4/11 GEORGES BANK BUO 0150 75 75 1012.8 6/10 $$ .............KEY.............. WCI - WIND CHILL TC - TEMPERATURE IN CELSIUS VSB - VISIBILITY IN MILES HX - HEAT INDEX FAIR- INDICATES FEW OR NO CLOUDS BELOW 12,000 FT, WITH NO SIGNIFICANT WEATHER AND/OR OBSTRUCTIONS TO VISIBILITY.

USA.gov is the U.S. government's official web portal to all federal, state and local government web resources and services.